Weather History for KDMA - October, 2012

Change the Weather History Date:

Friday, October 19, 2012

  Actual Average Record
Temperature  
Mean Temperature 74 °F -  
Max Temperature 88 °F 83 °F 98 °F (1991)
Min Temperature 59 °F 55 °F 40 °F (1971)
Cooling Degree Days 8    
Growing Degree Days 24 (Base 50)    
Moisture  
Dew Point 41 °F    
Average Humidity 35    
Maximum Humidity 67    
Minimum Humidity 13    
Precipitation  
Precipitation 0.00 in - - ()
Sea Level Pressure  
Sea Level Pressure 29.81 in    
Wind  
Wind Speed 4 mph (SSW)    
Max Wind Speed 10 mph    
Max Gust Speed -    
Visibility 10 miles    
Events      
Averages and records for this station are not official NWS values.
T = Trace of Precipitation, MM = Missing Value Source: NWS Daily Summary

Daily Weather History Graph

Daily Weather History Graph

Search for Another Location

Airport or City:

Trip Planner

Search our weather history database for the weather conditions in past years. The results will help you decide how hot, cold, wet, or windy it might be!

Date:

Astronomy

Oct. 19, 2012 Rise Set
Actual Time 6:30 AM MST 5:45 PM MST
Civil Twilight 6:05 AM MST 6:10 PM MST
Nautical Twilight 5:37 AM MST 6:39 PM MST
Astronomical Twilight 5:08 AM MST 7:07 PM MST
Moon 11:05 AM MST (10/19) 9:39 PM MST (10/19)
Length of Visible Light 12h 04m
Length of Day
11h 15m
Waxing Crescent, 24% of the Moon is Illuminated
Oct 19
Waxing Crescent
Oct 21
First Quarter
Oct 29
Full
Nov 6
Last Quarter
Nov 13
New

Hourly Weather History & Observations

Time (MST) Temp. Dew Point Humidity Pressure Visibility Wind Dir Wind Speed Gust Speed Precip Events Conditions
12:55 AM 67.1 °F 51.1 °F 56% 29.88 in 10.0 mi Calm Calm - N/A   Clear
1:55 AM 63.3 °F 49.8 °F 61% 29.88 in 10.0 mi SE 4.6 mph - N/A   Clear
2:55 AM 61.9 °F 49.8 °F 65% 29.87 in 10.0 mi South 4.6 mph - N/A   Clear
3:55 AM 61.9 °F 49.8 °F 65% 29.86 in 10.0 mi ESE 6.9 mph - N/A   Clear
4:55 AM 60.4 °F 48.7 °F 65% 29.87 in 10.0 mi SE 4.6 mph - N/A   Clear
5:55 AM 59.7 °F 48.7 °F 67% 29.89 in 10.0 mi SE 6.9 mph - N/A   Clear
6:55 AM 60.1 °F 48.9 °F 67% 29.90 in 10.0 mi ESE 9.2 mph - N/A   Clear
7:55 AM 64.6 °F 49.3 °F 58% 29.91 in 10.0 mi South 3.5 mph - N/A   Clear
8:55 AM 73.2 °F 48.9 °F 42% 29.89 in 10.0 mi ESE 5.8 mph - N/A   Clear
9:55 AM 77.9 °F 44.8 °F 31% 29.87 in 10.0 mi SE 3.5 mph - N/A   Clear
11:55 AM 84.0 °F 37.6 °F 19% 29.83 in 10.0 mi Calm Calm - N/A   Clear
12:06 PM 84.2 °F 37.4 °F 19% 29.81 in 10.0 mi Variable 3.5 mph - N/A   Light Drizzle
12:16 PM 84.2 °F 37.4 °F 19% 29.81 in 10.0 mi Calm Calm - N/A   Clear
12:55 PM 85.6 °F 38.7 °F 19% 29.78 in 10.0 mi Calm Calm - 0.00 in   Clear
1:55 PM 86.9 °F 36.1 °F 16% 29.75 in 10.0 mi WSW 3.5 mph - N/A   Clear
2:55 PM 88.0 °F 31.5 °F 13% 29.74 in 10.0 mi Variable 4.6 mph - N/A   Clear
3:55 PM 87.8 °F 31.8 °F 13% 29.73 in 10.0 mi NNW 4.6 mph - N/A   Clear
4:55 PM 87.8 °F 32.9 °F 14% 29.73 in 10.0 mi NW 10.4 mph - N/A   Clear
5:55 PM 83.5 °F 36.3 °F 19% 29.74 in 10.0 mi WNW 8.1 mph - N/A   Clear
6:55 PM 80.2 °F 37.4 °F 21% 29.76 in 10.0 mi WNW 8.1 mph - N/A   Clear
7:55 PM 79.7 °F 40.3 °F 24% 29.76 in 10.0 mi West 9.2 mph - N/A   Partly Cloudy
8:55 PM 78.1 °F 39.0 °F 25% 29.75 in 10.0 mi West 9.2 mph - N/A   Clear
9:55 PM 73.2 °F 37.4 °F 27% 29.77 in 10.0 mi WSW 9.2 mph - N/A   Clear
10:55 PM 69.6 °F 36.5 °F 30% 29.78 in 10.0 mi South 5.8 mph - N/A   Clear
11:55 PM 67.5 °F 35.4 °F 31% 29.77 in 10.0 mi South 5.8 mph - N/A   Clear